Location: Blachownia
(50.7807°N, 18.9578°E)
Time: 08:01:47
(UTC+01:00)

ISS - Pass Details

Date: 25 January 2019
Orbit: 403 x 411 km, 51.6° (Epoch: 18 February)

Event Time Altitude Azimuth Distance (km) Brightness Sun altitude
Rises 18:28:36 0° 233° (SW) 2,328 1.0 -19.5°
Reaches altitude 10° 18:30:43 10° 227° (SW) 1,472 -0.3 -19.9°
Enters shadow 18:33:25 41° 180° (S) 609 -3.0 -20.3°
